This demonstration page uses our WeatherBlox Daily Observations layout. Learn more.

Left ArrowRight Arrow

Hourly Observations for May 23, 2015

Temp ( °F °C ) Dew Point ( °F °C ) Humidity (%) Winds ( mph kmh ) Pressure ( in mb ) Visibility ( mi km ) Precip ( " mm )
12:16 am 00:16 Clear 57 14 37 3 48 48 Calm 30.3 1026 10 16.0934 N/A
12:36 am 00:36 Clear 55 13 39 4 55 55 Calm 30.3 1026 10 16.0934 N/A
12:56 am 00:56 Clear 54 12 37 3 54 54 Calm 30.3 1026 10 16.0934 N/A
1:16 am 01:16 Clear 52 11 37 3 58 58 Calm 30.3 1026 10 16.0934 N/A
1:36 am 01:36 Clear 54 12 37 3 54 54 Calm 30.3 1026 10 16.0934 N/A
1:56 am 01:56 Clear 52 11 39 4 62 62 Calm 30.3 1026 10 16.0934 N/A
2:16 am 02:16 Clear 52 11 39 4 62 62 Calm 30.3 1026 10 16.0934 N/A
2:36 am 02:36 Clear 54 12 37 3 54 54 Calm 30.3 1026 10 16.0934 N/A
2:57 am 02:57 Clear 50 10 41 5 71 71 NNE 6 9 30.3 1026 10 16.0934 N/A
3:16 am 03:16 Clear 50 10 43 6 76 76 NNE 6 9 30.3 1026 10 16.0934 N/A
3:36 am 03:36 Clear 52 11 39 4 62 62 NE 7 11 30.3 1026 10 16.0934 N/A
3:56 am 03:56 Clear 52 11 39 4 62 62 NE 7 11 30.3 1026 10 16.0934 N/A
4:16 am 04:16 Clear 52 11 43 6 72 72 NE 5 7 30.3 1026 10 16.0934 N/A
4:36 am 04:36 Clear 54 12 37 3 54 54 ENE 7 11 30.3 1026 10 16.0934 N/A
4:56 am 04:56 Clear 54 12 36 2 51 51 E 7 11 30.3 1026 10 16.0934 N/A
5:16 am 05:16 Clear 54 12 34 1 47 47 ENE 6 9 30.3 1026 10 16.0934 N/A
5:37 am 05:37 Clear 54 12 34 1 47 47 ENE 6 9 30.3 1026 10 16.0934 N/A
5:56 am 05:56 Clear 54 12 34 1 47 47 E 5 7 30.33 1027 10 16.0934 N/A
6:16 am 06:16 Clear 54 12 32 0 44 44 Calm 30.33 1027 10 16.0934 N/A
6:36 am 06:36 Sunny 54 12 32 0 44 44 E 3 6 30.33 1027 10 16.0934 N/A
6:56 am 06:56 Sunny 54 12 34 1 47 47 Calm 30.33 1027 10 16.0934 N/A
7:17 am 07:17 Sunny 55 13 32 0 41 41 SE 3 6 30.36 1028 10 16.0934 N/A
7:36 am 07:36 Sunny 57 14 32 0 39 39 Calm 30.36 1028 10 16.0934 N/A
7:56 am 07:56 Sunny 57 14 34 1 41 41 Calm 30.36 1028 10 16.0934 N/A
8:16 am 08:16 Sunny 57 14 34 1 41 41 SE 5 7 30.36 1028 10 16.0934 N/A
8:36 am 08:36 Sunny 61 16 34 1 36 36 SE 5 7 30.36 1028 10 16.0934 N/A
8:56 am 08:56 Sunny 63 17 32 0 32 32 SE 8 13 30.36 1028 10 16.0934 N/A
9:16 am 09:16 Sunny 66 19 34 1 30 30 S 8 13 30.36 1028 10 16.0934 N/A
9:36 am 09:36 Sunny 68 20 34 1 28 28 SSE 7 11 30.36 1028 10 16.0934 N/A
9:56 am 09:56 Sunny 68 20 34 1 28 28 S 8 13 30.36 1028 10 16.0934 N/A
10:16 am 10:16 Sunny 70 21 34 1 27 27 SSW 6 9 30.36 1028 10 16.0934 N/A
10:36 am 10:36 Sunny 72 22 34 1 25 25 S 7 11 30.36 1028 10 16.0934 N/A
10:57 am 10:57 Sunny 73 23 34 1 23 23 SW 6 9 30.36 1028 10 16.0934 N/A
11:16 am 11:16 Sunny 73 23 32 0 22 22 SSW 7 11 30.36 1028 10 16.0934 N/A
11:36 am 11:36 Sunny 75 24 28 -2 18 18 SSW 7 11 30.36 1028 10 16.0934 N/A
11:56 am 11:56 Sunny 75 24 28 -2 18 18 SW 8 13 30.36 1028 10 16.0934 N/A
12:16 pm 12:16 Sunny 75 24 27 -3 16 16 S 8 13 30.3 1026 10 16.0934 N/A
12:36 pm 12:36 Sunny 77 25 25 -4 14 14 SW 9 15 30.3 1026 10 16.0934 N/A
12:56 pm 12:56 Sunny 77 25 23 -5 13 13 S 9 15 30.3 1026 10 16.0934 N/A
1:16 pm 13:16 Sunny 77 25 21 -6 12 12 SW 10 17 30.3 1026 10 16.0934 N/A
1:36 pm 13:36 Sunny 79 26 19 -7 11 11 S 7 11 30.3 1026 10 16.0934 N/A
1:56 pm 13:56 Sunny 79 26 18 -8 10 10 S 8 13 30.27 1025 10 16.0934 N/A
2:16 pm 14:16 Sunny 79 26 18 -8 10 10 SSW 10 17 30.27 1025 10 16.0934 N/A
2:36 pm 14:36 Sunny 79 26 16 -9 9 9 SSW 7 11 30.27 1025 10 16.0934 N/A
2:56 pm 14:56 Sunny 79 26 18 -8 10 10 WSW 8 13 30.27 1025 10 16.0934 N/A
3:16 pm 15:16 Sunny 79 26 14 -10 8 8 S 7 11 30.27 1025 10 16.0934 N/A
3:37 pm 15:37 Sunny 81 27 14 -10 8 8 SW 6 9 30.27 1025 10 16.0934 N/A
3:56 pm 15:56 Sunny 81 27 16 -9 9 9 S 13 20 30.27 1025 10 16.0934 N/A
4:16 pm 16:16 Sunny 81 27 14 -10 8 8 S 6 9 30.24 1024 10 16.0934 N/A
4:36 pm 16:36 Sunny 81 27 12 -11 7 7 S 7 11 30.24 1024 10 16.0934 N/A
4:56 pm 16:56 Sunny 81 27 10 -12 7 7 SW 8 13 30.24 1024 10 16.0934 N/A
5:16 pm 17:16 Sunny 79 26 9 -13 7 7 S 8 13 30.24 1024 10 16.0934 N/A
5:36 pm 17:36 Sunny 79 26 7 -14 6 6 S 10 17 30.24 1024 10 16.0934 N/A
5:56 pm 17:56 Sunny 79 26 5 -15 6 6 S 12 19 30.24 1024 10 16.0934 N/A
6:16 pm 18:16 Sunny 79 26 5 -15 6 6 S 9 15 30.21 1023 10 16.0934 N/A
6:36 pm 18:36 Sunny 79 26 7 -14 6 6 S 8 13 30.21 1023 10 16.0934 N/A
6:56 pm 18:56 Sunny 79 26 9 -13 7 7 SSW 8 13 30.21 1023 10 16.0934 N/A
7:16 pm 19:16 Sunny 79 26 10 -12 7 7 S 8 13 30.21 1023 10 16.0934 N/A
7:36 pm 19:36 Sunny 77 25 10 -12 8 8 SSW 13 20 30.21 1023 10 16.0934 N/A
7:57 pm 19:57 Sunny 77 25 16 -9 10 10 SSW 8 13 30.21 1023 10 16.0934 N/A
8:16 pm 20:16 Sunny 75 24 18 -8 11 11 SSW 7 11 30.21 1023 10 16.0934 N/A
8:36 pm 20:36 Sunny 73 23 21 -6 14 14 S 5 7 30.24 1024 10 16.0934 N/A
8:56 pm 20:56 Sunny 72 22 23 -5 16 16 Calm 30.24 1024 10 16.0934 N/A
9:16 pm 21:16 Clear 72 22 23 -5 16 16 SSW 3 6 30.24 1024 10 16.0934 N/A
9:36 pm 21:36 Clear 70 21 27 -3 20 20 Calm 30.24 1024 10 16.0934 N/A
9:56 pm 21:56 Clear 64 18 32 0 30 30 SSE 3 6 30.24 1024 10 16.0934 N/A
10:16 pm 22:16 Clear 66 19 30 -1 26 26 Calm 30.24 1024 10 16.0934 N/A
10:36 pm 22:36 Clear 66 19 32 0 28 28 Calm 30.24 1024 10 16.0934 N/A
10:56 pm 22:56 Clear 64 18 34 1 32 32 SE 3 6 30.24 1024 10 16.0934 N/A
11:16 pm 23:16 Clear 63 17 36 2 37 37 SE 3 6 30.24 1024 10 16.0934 N/A
11:36 pm 23:36 Clear 61 16 37 3 42 42 SE 3 6 30.24 1024 10 16.0934 N/A
11:56 pm 23:56 Clear 61 16 36 2 39 39 SE 3 6 30.24 1024 7 11.26538 N/A

Powered by AerisWeather